CW8843 Weather Reports


time (UTC)temp
F
wind
direction
speed
knots
gust
knots
rain 1hr
in
rain 24hr
in
rain mn
in
humidity
%
barometer
mb
20260502194619 67 246 4.3 12.2 0.00 0.00 0.00 20 1019.4
20260502193613 67 300 3.5 9.6 0.00 0.00 0.00 26 1019.5
20260502192621 66 248 4.3 12.2 0.00 0.00 0.00 26 1019.6
20260502191629 65 290 5.2 13.0 0.00 0.00 0.00 27 1019.6
20260502190621 65 290 3.5 10.4 0.00 0.00 0.00 27 1019.8
20260502185621 65 298 4.3 9.6 0.00 0.00 0.00 27 1019.9
20260502184629 65 268 2.6 7.0 0.00 0.00 0.00 28 1020.0
20260502183639 65 284 5.2 7.8 0.00 0.00 0.00 29 1020.2
20260502181617 64 277 4.3 7.8 0.00 0.00 0.00 31 1020.3
20260502180631 63 286 3.5 7.0 0.00 0.00 0.00 33 1020.4
20260502163632 59 306 1.7 4.3 0.00 0.00 0.00 36 1020.7
20260502162619 58 327 1.7 5.2 0.00 0.00 0.00 36 1020.6
20260502161630 58 328 2.6 4.3 0.00 0.00 0.00 36 1020.7
20260502160619 58 313 2.6 4.3 0.00 0.00 0.00 36 1020.6
20260502151643 56 312 0.9 2.6 0.00 0.00 0.00 38 1020.5
20260502150630 56 312 0.0 3.5 0.00 0.00 0.00 45 1020.6
20260502130626 46 122 7.8 13.0 0.00 0.00 0.00 48 1020.3
20260502123652 46 119 8.7 15.6 0.00 0.00 0.00 48 1019.9
20260502122640 46 141 9.6 14.8 0.00 0.00 0.00 50 1019.8
20260502121630 46 119 9.6 16.5 0.00 0.00 0.00 49 1019.9
20260502120621 46 115 10.4 15.6 0.00 0.00 0.00 51 1019.8
20260502115625 47 153 8.7 14.8 0.00 0.00 0.00 49 1020.0
20260502114613 45 134 7.0 13.0 0.00 0.00 0.00 51 1020.0
20260502113644 44 95 8.7 14.8 0.00 0.00 0.00 56 1020.0
20260502112652 45 116 7.0 13.9 0.00 0.00 0.00 54 1020.0
20260502111621 45 130 8.7 13.9 0.00 0.00 0.00 56 1019.9
20260502110615 46 111 8.7 13.0 0.00 0.00 0.00 51 1020.0
20260502105634 45 90 7.8 13.9 0.00 0.00 0.00 51 1020.0
20260502104619 45 137 8.7 13.9 0.00 0.00 0.00 53 1020.0
20260502103628 45 108 8.7 14.8 0.00 0.00 0.00 51 1020.1
20260502102619 46 96 9.6 15.6 0.00 0.00 0.00 51 1020.0
20260502101629 45 153 10.4 17.4 0.00 0.00 0.00 53 1019.9
20260502100619 45 87 10.4 19.1 0.00 0.00 0.00 55 1019.8
20260502090645 47 136 8.7 15.6 0.00 0.00 0.00 49 1019.7
20260502070653 50 122 7.0 13.9 0.00 0.00 0.00 47 1020.0
20260502065616 50 115 7.0 14.8 0.00 0.00 0.00 42 1020.0
20260502064626 50 107 9.6 14.8 0.00 0.00 0.00 44 1019.5
20260502063616 50 148 11.3 16.5 0.00 0.00 0.00 45 1019.5
20260502062645 51 117 9.6 14.8 0.00 0.00 0.00 43 1019.5
20260502060653 51 82 10.4 15.6 0.00 0.00 0.00 40 1019.3
20260502055613 51 84 8.7 14.8 0.00 0.00 0.00 41 1019.3
20260502054641 51 135 9.6 15.6 0.00 0.00 0.00 42 1019.4
20260502053628 51 142 9.6 13.9 0.00 0.00 0.00 42 1019.3
20260502052619 52 89 9.6 14.8 0.00 0.00 0.00 41 1019.2
20260502051627 52 98 9.6 14.8 0.00 0.00 0.00 39 1019.1
20260502050636 52 152 8.7 15.6 0.00 0.00 0.00 40 1019.0
20260502045617 52 116 9.6 16.5 0.00 0.00 0.00 41 1019.0
20260502044631 53 88 9.6 15.6 0.00 0.00 0.00 40 1019.1
20260502043621 53 141 8.7 13.9 0.00 0.00 0.00 39 1019.1
20260502042612 53 105 9.6 15.6 0.00 0.00 0.00 39 1019.0
20260502041623 54 96 8.7 14.8 0.00 0.00 0.00 38 1019.0
20260502040617 55 123 8.7 13.0 0.00 0.00 0.00 36 1019.0
20260502035616 56 89 6.1 10.4 0.00 0.00 0.00 35 1018.9
20260502034625 55 98 7.8 11.3 0.00 0.00 0.00 37 1018.8
20260502033612 55 101 7.8 11.3 0.00 0.00 0.00 37 1018.7
20260502032624 55 138 6.1 9.6 0.00 0.00 0.00 38 1018.5
20260502031612 55 89 7.0 11.3 0.00 0.00 0.00 38 1018.5
20260502030621 56 115 4.3 9.6 0.00 0.00 0.00 37 1018.3
20260502025621 56 80 7.0 9.6 0.00 0.00 0.00 37 1018.2
20260502024613 58 120 5.2 8.7 0.00 0.00 0.00 34 1018.1
20260502023640 61 65 3.5 7.8 0.00 0.00 0.00 29 1018.1
20260502022627 63 92 6.1 9.6 0.00 0.00 0.00 26 1017.9
20260502021616 63 74 4.3 8.7 0.00 0.00 0.00 25 1017.9
20260502020629 64 64 4.3 9.6 0.00 0.00 0.00 25 1017.8
20260502015612 65 51 3.5 7.8 0.00 0.00 0.00 24 1017.7
20260502014621 65 64 2.6 9.6 0.00 0.00 0.00 23 1017.7
20260502013629 66 92 2.6 8.7 0.00 0.00 0.00 22 1017.7
20260502012620 67 12 3.5 7.8 0.00 0.00 0.00 22 1017.6
20260502011628 67 295 0.9 3.5 0.00 0.00 0.00 24 1017.6
20260502010615 66 303 4.3 7.0 0.00 0.00 0.00 23 1017.6
20260502005613 66 287 3.5 7.8 0.00 0.00 0.00 23 1017.7
20260502004625 66 292 6.1 8.7 0.00 0.00 0.00 23 1017.7
20260502003612 67 281 5.2 7.8 0.00 0.00 0.00 23 1017.6
20260502002620 67 291 5.2 8.7 0.00 0.00 0.00 23 1017.7
20260502001615 67 318 6.1 11.3 0.00 0.00 0.00 22 1017.7
20260502000626 67 319 3.5 8.7 0.00 0.00 0.00 23 1017.7
20260501235626 67 323 4.3 8.7 0.00 0.00 0.00 23 1017.7
20260501234614 67 293 2.6 7.8 0.00 0.00 0.00 23 1017.8
20260501233623 67 313 3.5 8.7 0.00 0.00 0.00 24 1017.8
20260501232636 67 337 0.9 7.0 0.00 0.00 0.00 23 1017.9
20260501231622 66 309 3.5 7.0 0.00 0.00 0.00 23 1017.9
20260501230629 66 338 5.2 9.6 0.00 0.00 0.00 23 1018.0
20260501225630 66 329 5.2 8.7 0.00 0.00 0.00 23 1018.1
20260501224624 66 275 3.5 7.0 0.00 0.00 0.00 22 1018.2
20260501223613 66 293 4.3 7.8 0.00 0.00 0.00 23 1018.3
20260501222622 66 344 1.7 7.0 0.00 0.00 0.00 24 1018.5
20260501221614 65 329 4.3 7.8 0.00 0.00 0.00 23 1018.6
20260501220621 65 336 1.7 10.4 0.00 0.00 0.00 25 1018.7
20260501215643 66 333 0.9 6.1 0.00 0.00 0.00 23 1018.8
20260501214613 66 336 3.5 9.6 0.00 0.00 0.00 24 1018.9
20260501213623 65 288 5.2 10.4 0.00 0.00 0.00 24 1018.9
20260501212617 64 300 7.0 17.4 0.00 0.00 0.00 25 1019.1
20260501211628 64 287 3.5 7.0 0.00 0.00 0.00 24 1019.1
20260501210640 64 256 4.3 8.7 0.00 0.00 0.00 26 1019.2
20260501205620 64 293 7.0 10.4 0.00 0.00 0.00 25 1019.1
20260501204615 63 176 1.7 7.0 0.00 0.00 0.00 28 1019.2
20260501203625 62 311 2.6 11.3 0.00 0.00 0.00 26 1019.4
20260501202616 62 201 3.5 8.7 0.00 0.00 0.00 26 1019.3
20260501201631 62 317 7.0 10.4 0.00 0.00 0.00 26 1019.4
20260501200622 62 184 3.5 11.3 0.00 0.00 0.00 26 1019.4
20260501195623 62 301 7.8 12.2 0.00 0.00 0.00 26 1019.4
20260501194652 62 266 1.7 7.8 0.00 0.00 0.00 26 1019.5